GW0392 Weather Reports


Display with metric or nautical units.
time (UTC)temp
F
wind
direction
speed
MPH
gust
MPH
rain 1hr
in
rain 24hr
in
rain mn
in
humidity
%
barometer
mb
20260905052603 77 220 0.0 0.0 0.00 0.00 0.00 97 1014.4
20260905052058 77 220 0.0 0.0 0.00 0.00 0.00 97 1014.2
20260905051554 77 220 0.0 0.0 0.00 0.00 0.00 97 1014.6
20260905051050 77 220 0.0 0.0 0.00 0.00 0.00 96 1014.5
20260905050546 77 220 0.0 0.0 0.00 0.00 0.00 96 1014.3
20260905050043 77 222 0.0 0.0 0.00 0.00 0.00 96 1014.4
20260905045537 77 222 0.0 0.0 0.00 0.00 0.00 96 1014.4
20260905045033 77 221 0.0 0.0 0.00 0.00 0.00 96 1014.6
20260905044532 77 220 0.0 0.0 0.00 0.00 0.00 96 1014.4
20260905044027 77 220 0.0 0.0 0.00 0.00 0.00 96 1014.5
20260905043526 77 221 0.0 0.0 0.00 0.00 0.00 96 1014.5
20260905043022 77 224 0.0 0.0 0.00 0.00 0.00 96 1014.3
20260905042520 77 223 0.0 0.0 0.00 0.00 0.00 95 1014.6
20260905042016 77 221 0.0 0.0 0.00 0.00 0.00 96 1014.5
20260905041511 77 220 0.0 0.0 0.00 0.00 0.00 96 1014.7
20260905041007 77 221 0.0 0.0 0.00 0.00 0.00 96 1014.4
20260905040506 77 221 0.0 0.0 0.00 0.00 0.00 96 1014.8
20260905040005 77 221 0.0 0.0 0.00 0.00 0.00 95 1014.6
20260905035500 78 220 0.0 0.0 0.00 0.00 0.00 95 1014.7
20260905034957 78 221 0.0 0.0 0.00 0.00 0.00 95 1014.7
20260905034458 78 225 0.0 0.0 0.00 0.00 0.00 95 1014.8
20260905033956 78 225 0.0 0.0 0.00 0.00 0.00 95 1014.9
20260905033451 78 221 0.0 0.0 0.00 0.00 0.00 95 1014.8
20260905032946 78 220 0.0 0.0 0.00 0.00 0.00 95 1015.1
20260905032442 78 220 0.0 0.0 0.00 0.00 0.00 95 1015.1
20260905031936 78 219 0.0 0.0 0.00 0.00 0.00 95 1015.1
20260905031432 78 220 0.0 0.0 0.00 0.00 0.00 95 1015.1
20260905030927 78 221 0.0 0.0 0.00 0.00 0.00 95 1015.2
20260905030423 78 220 0.0 0.0 0.00 0.00 0.00 95 1015.2
20260905025921 78 220 0.0 0.0 0.00 0.00 0.00 95 1015.1
20260905025417 78 220 0.0 0.0 0.00 0.00 0.00 94 1015.4
20260905024914 78 220 0.0 0.0 0.00 0.00 0.00 94 1015.4
20260905024408 78 220 0.0 0.0 0.00 0.00 0.00 94 1015.5
20260905023904 78 220 0.0 0.0 0.00 0.00 0.00 94 1015.3
20260905023359 78 220 0.0 0.0 0.00 0.00 0.00 94 1015.4
20260905022857 78 220 0.0 0.0 0.00 0.00 0.00 94 1015.3
20260905022348 79 221 0.0 0.0 0.00 0.00 0.00 94 1015.6
20260905021848 79 221 0.0 0.0 0.00 0.00 0.00 93 1015.2
20260905021343 79 221 0.0 0.0 0.00 0.00 0.00 94 1015.1
20260905020838 79 221 0.0 0.0 0.00 0.00 0.00 93 1015.2
20260905020332 79 221 0.0 0.0 0.00 0.00 0.00 94 1015.2
20260905001707 82 220 0.0 0.0 0.00 0.00 0.00 88 1014.5
20260905001205 82 220 0.0 0.0 0.00 0.00 0.00 88 1014.5
20260905000701 82 220 0.0 0.0 0.00 0.00 0.00 87 1014.4
20260905000157 82 220 0.0 0.0 0.00 0.00 0.00 86 1014.4
20260904235657 82 220 0.0 0.0 0.00 0.00 0.00 86 1014.3
20260904235156 83 220 0.0 0.0 0.00 0.00 0.00 86 1014.8
20260904234651 83 220 0.0 0.0 0.00 0.00 0.00 85 1014.6
20260904234148 83 220 0.0 0.0 0.00 0.00 0.00 85 1014.3
20260904233642 83 220 0.0 0.0 0.00 0.00 0.00 83 1014.4
20260904233138 83 220 0.0 0.0 0.00 0.00 0.00 83 1014.2
20260904232635 84 218 0.0 1.0 0.00 0.00 0.00 83 1014.2
20260904232131 84 204 2.0 2.0 0.00 0.00 0.00 83 1014.2
20260904231626 84 215 1.0 1.0 0.00 0.00 0.00 83 1014.2
20260904231121 84 218 0.0 1.0 0.00 0.00 0.00 84 1014.1
20260904230620 84 218 1.0 1.0 0.00 0.00 0.00 83 1014.1
20260904230116 85 219 0.0 1.0 0.00 0.00 0.00 81 1014.1
20260904225613 86 218 0.0 1.0 0.00 0.00 0.00 80 1013.9
20260904225108 86 212 1.0 2.0 0.00 0.00 0.00 78 1014.0
20260904224603 87 200 0.0 1.0 0.00 0.00 0.00 78 1014.2
20260904224058 87 211 0.0 0.0 0.00 0.00 0.00 79 1014.1
20260904223557 87 219 0.0 0.0 0.00 0.00 0.00 79 1013.9
20260904223053 87 216 0.0 0.0 0.00 0.00 0.00 74 1014.1
20260904222548 87 220 0.0 0.0 0.00 0.00 0.00 75 1014.1
20260904222044 88 221 0.0 0.0 0.00 0.00 0.00 73 1014.1
20260904221538 90 218 0.0 0.0 0.00 0.00 0.00 72 1014.0
20260904221033 91 218 0.0 0.0 0.00 0.00 0.00 68 1013.8
20260904220532 92 221 0.0 0.0 0.00 0.00 0.00 66 1013.9
20260904220028 94 216 0.0 0.0 0.00 0.00 0.00 61 1013.8
20260904215528 95 225 0.0 0.0 0.00 0.00 0.00 56 1013.7
20260904215024 94 225 1.0 1.0 0.00 0.00 0.00 55 1013.5
20260904214519 94 223 0.0 1.0 0.00 0.00 0.00 56 1013.6
20260904214015 94 223 0.0 1.0 0.00 0.00 0.00 57 1013.5
20260904213512 94 228 0.0 2.0 0.00 0.00 0.00 56 1013.7
20260904213010 95 231 1.0 2.0 0.00 0.00 0.00 55 1013.7
20260904212509 97 220 1.0 2.0 0.00 0.00 0.00 48 1013.7
20260904212004 97 233 0.0 0.0 0.00 0.00 0.00 48 1013.4
20260904211458 98 221 0.0 0.0 0.00 0.00 0.00 46 1013.6
20260904210954 98 228 0.0 0.0 0.00 0.00 0.00 46 1013.7
20260904210453 98 223 0.0 0.0 0.00 0.00 0.00 46 1014.0
20260904205948 97 227 0.0 0.0 0.00 0.00 0.00 46 1013.7
20260904205444 97 228 1.0 1.0 0.00 0.00 0.00 46 1013.5
20260904204941 96 228 1.0 1.0 0.00 0.00 0.00 47 1014.0
20260904204436 96 226 0.0 1.0 0.00 0.00 0.00 50 1014.0
20260904203932 97 219 0.0 0.0 0.00 0.00 0.00 48 1014.1
20260904203429 97 227 1.0 1.0 0.00 0.00 0.00 49 1014.0
20260904202924 97 224 0.0 0.0 0.00 0.00 0.00 50 1014.2
20260904202420 97 223 0.0 0.0 0.00 0.00 0.00 50 1014.2
20260904201916 97 210 0.0 1.0 0.00 0.00 0.00 49 1014.4
20260904201411 96 227 1.0 1.0 0.00 0.00 0.00 52 1014.6
20260904200907 96 241 1.0 1.0 0.00 0.00 0.00 51 1014.5
20260904200405 96 235 0.0 0.0 0.00 0.00 0.00 53 1014.5
20260904195900 96 216 0.0 0.0 0.00 0.00 0.00 51 1014.5
20260904195358 97 218 0.0 1.0 0.00 0.00 0.00 52 1014.6
20260904194853 97 226 0.0 1.0 0.00 0.00 0.00 50 1014.6
20260904194352 97 225 0.0 1.0 0.00 0.00 0.00 51 1014.8
20260904193848 98 227 0.0 2.0 0.00 0.00 0.00 48 1014.8
20260904193343 98 214 1.0 3.0 0.00 0.00 0.00 49 1014.9
20260904192838 98 199 1.0 2.0 0.00 0.00 0.00 48 1015.0
20260904192333 97 217 1.0 2.0 0.00 0.00 0.00 49 1015.2
20260904191830 99 208 2.0 3.0 0.00 0.00 0.00 49 1015.3
20260904191326 98 207 1.0 2.0 0.00 0.00 0.00 49 1015.4
20260904190822 98 217 1.0 1.0 0.00 0.00 0.00 47 1015.6
20260904190318 98 222 0.0 2.0 0.00 0.00 0.00 46 1015.5
20260904185814 97 243 1.0 1.0 0.00 0.00 0.00 48 1015.7
20260904185310 98 221 0.0 1.0 0.00 0.00 0.00 48 1015.6
20260904184809 99 217 0.0 1.0 0.00 0.00 0.00 49 1015.5
20260904184304 98 188 2.0 2.0 0.00 0.00 0.00 49 1015.7
20260904183759 99 204 1.0 3.0 0.00 0.00 0.00 47 1016.0
20260904183254 98 158 1.0 1.0 0.00 0.00 0.00 48 1016.0
20260904182749 98 210 1.0 2.0 0.00 0.00 0.00 49 1016.0
20260904182244 98 213 2.0 2.0 0.00 0.00 0.00 48 1016.0
20260904181740 98 220 1.0 3.0 0.00 0.00 0.00 47 1016.0
20260904181239 97 207 2.0 3.0 0.00 0.00 0.00 46 1016.4
20260904180735 97 218 0.0 2.0 0.00 0.00 0.00 49 1016.2
20260904180230 97 199 2.0 3.0 0.00 0.00 0.00 51 1016.1
20260904175729 98 220 1.0 3.0 0.00 0.00 0.00 48 1016.2
20260904175228 97 216 1.0 2.0 0.00 0.00 0.00 50 1016.3
20260904174723 98 226 1.0 2.0 0.00 0.00 0.00 50 1016.4
20260904174219 97 219 0.0 1.0 0.00 0.00 0.00 51 1016.3
20260904173714 97 221 1.0 1.0 0.00 0.00 0.00 53 1016.4
20260904173209 96 221 2.0 3.0 0.00 0.00 0.00 55 1016.7
20260904172706 96 251 1.0 2.0 0.00 0.00 0.00 54 1016.6
20260904172204 96 221 0.0 2.0 0.00 0.00 0.00 54 1016.8
20260904171700 95 222 0.0 3.0 0.00 0.00 0.00 55 1016.7
20260904171154 95 247 1.0 2.0 0.00 0.00 0.00 56 1016.9
20260904170651 95 211 0.0 1.0 0.00 0.00 0.00 57 1016.8
20260904170147 95 223 0.0 0.0 0.00 0.00 0.00 57 1017.0
20260904165645 95 241 0.0 1.0 0.00 0.00 0.00 57 1017.2
20260904165144 94 227 1.0 1.0 0.00 0.00 0.00 58 1017.1
20260904164640 94 226 0.0 1.0 0.00 0.00 0.00 59 1017.1
20260904164135 93 204 1.0 3.0 0.00 0.00 0.00 61 1017.3
20260904163631 93 214 1.0 3.0 0.00 0.00 0.00 61 1017.1
20260904163126 93 203 1.0 1.0 0.00 0.00 0.00 63 1017.4
20260904162625 92 213 0.0 2.0 0.00 0.00 0.00 64 1017.4
20260904162120 92 247 2.0 2.0 0.00 0.00 0.00 63 1017.5
20260904161616 93 212 1.0 2.0 0.00 0.00 0.00 63 1017.4
20260904161111 93 221 0.0 2.0 0.00 0.00 0.00 63 1017.5
20260904160606 92 204 1.0 2.0 0.00 0.00 0.00 65 1017.5
20260904155556 91 225 0.0 2.0 0.00 0.00 0.00 65 1017.8
20260904155050 90 202 1.0 2.0 0.00 0.00 0.00 68 1017.8
20260904154544 90 196 2.0 2.0 0.00 0.00 0.00 68 1017.8
20260904154039 90 214 0.0 2.0 0.00 0.00 0.00 68 1017.9
20260904153538 90 208 0.0 2.0 0.00 0.00 0.00 68 1017.9
20260904153035 90 220 0.0 2.0 0.00 0.00 0.00 69 1017.8
20260904152530 89 214 0.0 1.0 0.00 0.00 0.00 68 1017.8
20260904152026 89 226 0.0 0.0 0.00 0.00 0.00 69 1017.8
20260904151520 89 217 0.0 1.0 0.00 0.00 0.00 70 1017.9
20260904151015 88 219 0.0 1.0 0.00 0.00 0.00 71 1017.9
20260904150515 88 211 0.0 1.0 0.00 0.00 0.00 71 1018.0
20260904150009 88 213 0.0 0.0 0.00 0.00 0.00 72 1017.5
20260904145504 87 215 1.0 1.0 0.00 0.00 0.00 73 1017.9
20260904144959 87 263 1.0 1.0 0.00 0.00 0.00 74 1017.9
20260904144455 86 218 0.0 0.0 0.00 0.00 0.00 76 1017.8
20260904143950 86 223 0.0 0.0 0.00 0.00 0.00 77 1017.7
20260904143446 85 226 0.0 1.0 0.00 0.00 0.00 77 1017.5
20260904142943 85 231 0.0 1.0 0.00 0.00 0.00 79 1017.5
20260904142439 85 228 0.0 0.0 0.00 0.00 0.00 80 1017.8
20260904141933 84 221 0.0 1.0 0.00 0.00 0.00 80 1017.5
20260904141428 84 220 0.0 1.0 0.00 0.00 0.00 80 1017.5
20260904140925 84 219 0.0 1.0 0.00 0.00 0.00 80 1017.7
20260904140425 85 212 0.0 0.0 0.00 0.00 0.00 80 1017.5
20260904135923 84 225 0.0 1.0 0.00 0.00 0.00 81 1017.7
20260904135423 82 224 0.0 1.0 0.00 0.00 0.00 82 1017.7
20260904134920 82 225 0.0 0.0 0.00 0.00 0.00 84 1017.3
20260904134419 81 222 0.0 0.0 0.00 0.00 0.00 86 1017.7
20260904133914 80 223 0.0 0.0 0.00 0.00 0.00 87 1017.4
20260904133415 80 229 0.0 0.0 0.00 0.00 0.00 87 1017.5
20260904132910 79 225 0.0 0.0 0.00 0.00 0.00 89 1017.5
20260904132405 78 228 0.0 0.0 0.00 0.00 0.00 90 1017.5
20260904131904 78 225 0.0 0.0 0.00 0.00 0.00 92 1017.7
20260904131359 77 225 0.0 0.0 0.00 0.00 0.00 94 1017.8
20260904130855 76 228 0.0 0.0 0.00 0.00 0.00 95 1017.8
20260904130354 76 223 0.0 0.0 0.00 0.00 0.00 96 1017.8
20260904125849 75 223 0.0 0.0 0.00 0.00 0.00 97 1017.8
20260904125346 75 223 0.0 0.0 0.00 0.00 0.00 98 1017.5
20260904124844 75 227 0.0 0.0 0.00 0.00 0.00 98 1017.9
20260904124342 74 226 0.0 0.0 0.00 0.00 0.00 99 1017.8
20260904123836 74 225 0.0 0.0 0.00 0.00 0.00 99 1017.9
20260904123331 74 225 0.0 0.0 0.00 0.00 0.00 99 1017.7
20260904122826 74 225 0.0 0.0 0.00 0.00 0.00 99 1017.5
20260904122321 74 222 0.0 0.0 0.00 0.00 0.00 99 1017.5
20260904121816 73 223 0.0 0.0 0.00 0.00 0.00 99 1017.3
20260904121312 73 222 0.0 0.0 0.00 0.00 0.00 99 1017.3
20260904120809 73 222 0.0 0.0 0.00 0.00 0.00 99 1017.5
20260904120303 73 225 0.0 0.0 0.00 0.00 0.00 99 1017.4
20260904115759 73 225 0.0 0.0 0.00 0.00 0.00 99 1017.5
20260904115254 73 224 0.0 0.0 0.00 0.00 0.00 99 1017.7
20260904114749 73 221 0.0 0.0 0.00 0.00 0.00 99 1017.7
20260904114248 73 223 0.0 0.0 0.00 0.00 0.00 99 1017.3
20260904113743 73 223 0.0 0.0 0.00 0.00 0.00 99 1017.2
20260904113242 73 221 0.0 0.0 0.00 0.00 0.00 99 1017.2
20260904112738 73 221 0.0 0.0 0.00 0.00 0.00 99 1017.3
20260904112233 73 221 0.0 0.0 0.00 0.00 0.00 99 1017.1
20260904111729 73 221 0.0 0.0 0.00 0.00 0.00 99 1017.1
20260904111224 73 221 0.0 0.0 0.00 0.00 0.00 99 1017.0
20260904110720 73 225 0.0 0.0 0.00 0.00 0.00 99 1017.0
20260904110219 73 225 0.0 0.0 0.00 0.00 0.00 99 1017.2
20260904105714 73 223 0.0 0.0 0.00 0.00 0.00 99 1017.0
20260904105209 73 223 0.0 0.0 0.00 0.00 0.00 99 1016.9
20260904104704 73 221 0.0 0.0 0.00 0.00 0.00 99 1016.8
20260904104200 73 221 0.0 0.0 0.00 0.00 0.00 99 1016.9
20260904103656 73 221 0.0 0.0 0.00 0.00 0.00 99 1016.5
20260904103151 73 221 0.0 0.0 0.00 0.00 0.00 99 1016.6
20260904102647 73 220 0.0 0.0 0.00 0.00 0.00 99 1016.8
20260904102142 73 224 0.0 0.0 0.00 0.00 0.00 99 1016.7
20260904101639 73 223 0.0 0.0 0.00 0.00 0.00 99 1016.5
20260904101134 73 223 0.0 0.0 0.00 0.00 0.00 99 1016.5
20260904100630 73 222 0.0 0.0 0.00 0.00 0.00 99 1016.6
20260904100125 73 223 0.0 0.0 0.00 0.00 0.00 99 1016.4
20260904095619 73 225 0.0 0.0 0.00 0.00 0.00 99 1016.5
20260904095114 73 224 0.0 0.0 0.00 0.00 0.00 99 1016.6
20260904094609 73 224 0.0 0.0 0.00 0.00 0.00 99 1016.6
20260904094104 73 224 0.0 0.0 0.00 0.00 0.00 99 1016.5
20260904093601 73 224 0.0 0.0 0.00 0.00 0.00 99 1016.3
20260904093101 73 223 0.0 0.0 0.00 0.00 0.00 99 1016.4
20260904092557 73 223 0.0 0.0 0.00 0.00 0.00 99 1016.2
20260904092053 73 223 0.0 0.0 0.00 0.00 0.00 99 1016.4
20260904091549 73 223 0.0 0.0 0.00 0.00 0.00 99 1016.5
20260904091048 73 221 0.0 0.0 0.00 0.00 0.00 99 1016.4
20260904090544 73 226 0.0 0.0 0.00 0.00 0.00 99 1016.4
20260904090039 73 222 0.0 0.0 0.00 0.00 0.00 99 1016.3
20260904085534 73 225 0.0 0.0 0.00 0.00 0.00 99 1016.2
20260904085034 73 224 0.0 0.0 0.00 0.00 0.00 99 1016.1
20260904084529 73 223 0.0 0.0 0.00 0.00 0.00 99 1016.4
20260904084026 74 223 0.0 0.0 0.00 0.00 0.00 99 1016.5
20260904083522 74 223 0.0 0.0 0.00 0.00 0.00 99 1016.3
20260904083017 74 223 0.0 0.0 0.00 0.00 0.00 99 1016.3
20260904082512 74 223 0.0 0.0 0.00 0.00 0.00 98 1016.3
20260904082007 74 222 0.0 0.0 0.00 0.00 0.00 98 1016.1
20260904081503 74 224 0.0 0.0 0.00 0.00 0.00 98 1016.3
20260904080958 74 224 0.0 0.0 0.00 0.00 0.00 98 1016.1
20260904080454 74 225 0.0 0.0 0.00 0.00 0.00 98 1016.0
20260904075949 74 221 0.0 0.0 0.00 0.00 0.00 98 1016.2
20260904075445 74 221 0.0 0.0 0.00 0.00 0.00 98 1016.0
20260904074944 74 220 0.0 0.0 0.00 0.00 0.00 98 1016.1
20260904074439 74 220 0.0 0.0 0.00 0.00 0.00 98 1016.0
20260904073934 74 220 0.0 0.0 0.00 0.00 0.00 98 1016.0
20260904073430 74 223 0.0 0.0 0.00 0.00 0.00 98 1016.1
20260904072925 74 223 0.0 0.0 0.00 0.00 0.00 98 1016.0
20260904072420 74 223 0.0 0.0 0.00 0.00 0.00 98 1016.1
20260904071916 74 223 0.0 0.0 0.00 0.00 0.00 97 1015.8
20260904071411 74 223 0.0 0.0 0.00 0.00 0.00 97 1015.9
20260904070906 74 223 0.0 0.0 0.00 0.00 0.00 97 1015.9
20260904070404 75 222 0.0 0.0 0.00 0.00 0.00 97 1015.8
20260904065905 75 223 0.0 0.0 0.00 0.00 0.00 97 1016.0
20260904065401 75 224 0.0 0.0 0.00 0.00 0.00 97 1016.0
20260904064900 75 224 0.0 0.0 0.00 0.00 0.00 97 1016.0
20260904064357 75 224 0.0 0.0 0.00 0.00 0.00 97 1015.9
20260904063852 75 224 0.0 0.0 0.00 0.00 0.00 97 1016.1
20260904063349 75 224 0.0 0.0 0.00 0.00 0.00 97 1016.1
20260904062843 75 224 0.0 0.0 0.00 0.00 0.00 97 1016.3
20260904062340 75 224 0.0 0.0 0.00 0.00 0.00 97 1016.1
20260904061835 75 224 0.0 0.0 0.00 0.00 0.00 97 1016.1
20260904061331 75 224 0.0 0.0 0.00 0.00 0.00 97 1016.3
20260904060827 75 224 0.0 0.0 0.00 0.00 0.00 97 1016.3
20260904060323 75 224 0.0 0.0 0.00 0.00 0.00 96 1016.4
20260904055818 75 224 0.0 0.0 0.00 0.00 0.00 96 1016.4
20260904055313 75 224 0.0 0.0 0.00 0.00 0.00 96 1016.5
20260904054803 75 224 0.0 0.0 0.00 0.00 0.00 96 1016.3
20260904054259 75 222 0.0 0.0 0.00 0.00 0.00 96 1016.3
20260904053754 75 222 0.0 0.0 0.00 0.00 0.00 96 1016.4
20260904053253 75 222 0.0 0.0 0.00 0.00 0.00 96 1016.5